When you browse on this site, cookies collect data to enhance your experience and personalize the content and advertising you see.
Visit our Privacy Policy to learn more. By continuing to use the site, you agree to this use of cookies and data.
  • En España
  • Lista de países
  • Para 7 días
  • Temperatura del agua
  • Mapa Satelital
  • El tiempo en el mapa
  • Informadores
  • user-avatar
    Iniciar sesión

    Tiempo cada hora Ganja

    Hoy, 21 Julio, Domingo

    Tiempo Temperatura Precipitaciones Viento Presión Humedad
    00:00 +29°C° 0 mm 4 mps 727 mmHg 45%
    01:00 +28°C° 0 mm 4 mps 727 mmHg 46%
    02:00 +28°C° 0 mm 4 mps 727 mmHg 47%
    03:00 +27°C° 0 mm 4 mps 727 mmHg 48%
    04:00 +27°C° 0 mm 3 mps 727 mmHg 49%
    05:00 +27°C° 0 mm 3 mps 727 mmHg 49%
    06:00 +27°C° 0 mm 3 mps 727 mmHg 50%
    07:00 +29°C° 0 mm 3 mps 727 mmHg 46%
    08:00 +32°C° 0 mm 4 mps 726 mmHg 42%
    09:00 +34°C° 0 mm 4 mps 726 mmHg 37%
    10:00 +35°C° 0 mm 5 mps 726 mmHg 35%
    11:00 +36°C° 0 mm 5 mps 726 mmHg 33%
    12:00 +38°C° 0 mm 6 mps 726 mmHg 31%
    13:00 +38°C° 0 mm 6 mps 725 mmHg 30%
    14:00 +39°C° 0 mm 6 mps 724 mmHg 30%
    15:00 +39°C° 0 mm 6 mps 724 mmHg 29%
    16:00 +39°C° 0 mm 5 mps 724 mmHg 31%
    17:00 +37°C° 0 mm 5 mps 724 mmHg 32%
    18:00 +37°C° 0 mm 4 mps 724 mmHg 34%
    19:00 +35°C° 0 mm 4 mps 724 mmHg 36%
    20:00 +33°C° 0 mm 4 mps 724 mmHg 39%
    21:00 +32°C° 0 mm 4 mps 724 mmHg 41%
    22:00 +30°C° 0 mm 4 mps 724 mmHg 44%
    23:00 +29°C° 0 mm 3 mps 724 mmHg 46%

    Mañana, 22 Julio, Lunes

    Tiempo Temperatura Precipitaciones Viento Presión Humedad
    00:00 +29°C° 0 mm 3 mps 724 mmHg 49%
    01:00 +28°C° 0 mm 3 mps 724 mmHg 51%
    02:00 +27°C° 0 mm 2 mps 723 mmHg 53%
    03:00 +27°C° 0 mm 1 mps 723 mmHg 55%
    04:00 +27°C° 0 mm 1 mps 723 mmHg 56%
    05:00 +27°C° 0 mm 1 mps 723 mmHg 57%
    06:00 +27°C° 0 mm 1 mps 723 mmHg 58%
    07:00 +29°C° 0 mm 1 mps 723 mmHg 55%
    08:00 +30°C° 0 mm 2 mps 722 mmHg 52%
    09:00 +31°C° 0 mm 2 mps 722 mmHg 49%
    10:00 +32°C° 0 mm 2 mps 722 mmHg 46%
    11:00 +35°C° 0 mm 2 mps 722 mmHg 43%
    12:00 +36°C° 0 mm 3 mps 722 mmHg 40%
    13:00 +37°C° 0 mm 3 mps 721 mmHg 38%
    14:00 +38°C° 0 mm 4 mps 721 mmHg 36%
    15:00 +39°C° 0 mm 5 mps 721 mmHg 34%
    16:00 +39°C° 0 mm 5 mps 721 mmHg 35%
    17:00 +37°C° 0 mm 5 mps 721 mmHg 37%
    18:00 +37°C° 0 mm 5 mps 721 mmHg 39%
    19:00 +35°C° 0 mm 5 mps 721 mmHg 42%
    20:00 +33°C° 0 mm 5 mps 722 mmHg 46%
    21:00 +32°C° 0 mm 5 mps 722 mmHg 49%
    22:00 +30°C° 0 mm 5 mps 722 mmHg 50%
    23:00 +29°C° 0 mm 4 mps 722 mmHg 52%

    Pasado mañana, 23 Julio, Martes

    Tiempo Temperatura Precipitaciones Viento Presión Humedad
    00:00 +29°C° 0 mm 3 mps 722 mmHg 53%
    01:00 +28°C° 0 mm 3 mps 722 mmHg 56%
    02:00 +27°C° 0 mm 2 mps 722 mmHg 59%
    03:00 +27°C° 0 mm 2 mps 722 mmHg 62%
    04:00 +27°C° 0 mm 2 mps 722 mmHg 62%
    05:00 +27°C° 0 mm 2 mps 722 mmHg 63%
    06:00 +27°C° 0 mm 2 mps 723 mmHg 63%
    07:00 +28°C° 0 mm 2 mps 722 mmHg 59%
    08:00 +29°C° 0 mm 2 mps 722 mmHg 56%
    09:00 +30°C° 0 mm 2 mps 722 mmHg 52%
    10:00 +33°C° 0 mm 3 mps 722 mmHg 47%
    11:00 +34°C° 0 mm 3 mps 722 mmHg 43%
    12:00 +36°C° 0 mm 3 mps 721 mmHg 38%
    13:00 +36°C° 0 mm 4 mps 721 mmHg 36%
    14:00 +37°C° 0 mm 5 mps 720 mmHg 34%
    15:00 +37°C° 0 mm 5 mps 720 mmHg 33%
    16:00 +37°C° 0 mm 5 mps 720 mmHg 35%
    17:00 +36°C° 0 mm 4 mps 720 mmHg 36%
    18:00 +36°C° 0 mm 3 mps 720 mmHg 38%
    19:00 +34°C° 0 mm 3 mps 720 mmHg 41%
    20:00 +33°C° 0 mm 3 mps 721 mmHg 45%
    21:00 +30°C° 0 mm 3 mps 721 mmHg 48%
    22:00 +29°C° 0 mm 3 mps 721 mmHg 50%
    23:00 +29°C° 0 mm 3 mps 721 mmHg 52%

    24 Julio, Miércoles

    Tiempo Temperatura Precipitaciones Viento Presión Humedad
    00:00 +28°C° 0 mm 3 mps 721 mmHg 54%
    01:00 +27°C° 0 mm 3 mps 721 mmHg 55%
    02:00 +27°C° 0 mm 2 mps 721 mmHg 57%
    03:00 +26°C° 0 mm 2 mps 721 mmHg 58%
    04:00 +27°C° 0 mm 2 mps 721 mmHg 58%
    05:00 +27°C° 0 mm 2 mps 721 mmHg 59%
    06:00 +27°C° 0 mm 1 mps 721 mmHg 59%
    07:00 +28°C° 0 mm 2 mps 721 mmHg 56%
    08:00 +29°C° 0 mm 2 mps 721 mmHg 54%
    09:00 +30°C° 0 mm 3 mps 721 mmHg 51%
    10:00 +31°C° 0 mm 2 mps 721 mmHg 47%
    11:00 +34°C° 0 mm 2 mps 720 mmHg 43%
    12:00 +35°C° 0 mm 2 mps 720 mmHg 39%
    13:00 +36°C° 0 mm 3 mps 720 mmHg 37%
    14:00 +37°C° 0 mm 3 mps 720 mmHg 36%
    15:00 +37°C° 0 mm 3 mps 719 mmHg 34%
    16:00 +37°C° 0 mm 3 mps 719 mmHg 35%
    17:00 +37°C° 0 mm 3 mps 719 mmHg 35%
    18:00 +36°C° 0 mm 2 mps 719 mmHg 36%
    19:00 +35°C° 0 mm 2 mps 720 mmHg 39%
    20:00 +32°C° 0 mm 2 mps 720 mmHg 43%
    21:00 +31°C° 0 mm 2 mps 721 mmHg 46%
    22:00 +30°C° 0 mm 2 mps 721 mmHg 48%
    23:00 +29°C° 0 mm 3 mps 721 mmHg 51%

    25 Julio, Jueves

    Tiempo Temperatura Precipitaciones Viento Presión Humedad
    00:00 +28°C° 0 mm 3 mps 721 mmHg 53%
    01:00 +27°C° 0 mm 2 mps 721 mmHg 56%
    02:00 +26°C° 0 mm 1 mps 721 mmHg 58%
    03:00 +24°C° 0 mm 0 mps 721 mmHg 61%
    04:00 +26°C° 0 mm 1 mps 721 mmHg 61%
    05:00 +26°C° 0 mm 2 mps 721 mmHg 61%
    06:00 +27°C° 0 mm 3 mps 721 mmHg 62%
    07:00 +28°C° 0 mm 3 mps 721 mmHg 58%
    08:00 +30°C° 0 mm 3 mps 721 mmHg 55%
    09:00 +31°C° 0 mm 3 mps 721 mmHg 51%
    10:00 +33°C° 0 mm 3 mps 721 mmHg 48%
    11:00 +34°C° 0 mm 3 mps 720 mmHg 45%
    12:00 +35°C° 0 mm 2 mps 720 mmHg 43%
    13:00 +36°C° 0 mm 2 mps 719 mmHg 40%
    14:00 +37°C° 0 mm 3 mps 719 mmHg 37%
    15:00 +38°C° 0 mm 3 mps 719 mmHg 35%
    16:00 +38°C° 0 mm 3 mps 718 mmHg 35%
    17:00 +37°C° 0 mm 3 mps 718 mmHg 36%
    18:00 +37°C° 0 mm 4 mps 718 mmHg 37%
    19:00 +35°C° 0 mm 4 mps 719 mmHg 39%
    20:00 +34°C° 0 mm 4 mps 719 mmHg 42%
    21:00 +32°C° 0 mm 4 mps 720 mmHg 44%
    22:00 +30°C° 0 mm 4 mps 720 mmHg 49%
    23:00 +28°C° 0 mm 3 mps 720 mmHg 54%

    26 Julio, Viernes

    Tiempo Temperatura Precipitaciones Viento Presión Humedad
    00:00 +27°C° 0 mm 3 mps 720 mmHg 60%
    01:00 +26°C° 0 mm 3 mps 720 mmHg 62%
    02:00 +26°C° 0 mm 3 mps 720 mmHg 65%
    03:00 +25°C° 0 mm 4 mps 720 mmHg 67%
    04:00 +25°C° 0 mm 4 mps 720 mmHg 65%
    05:00 +26°C° 0 mm 4 mps 720 mmHg 64%
    06:00 +26°C° 0 mm 4 mps 720 mmHg 62%
    07:00 +27°C° 0 mm 4 mps 720 mmHg 58%
    08:00 +29°C° 0 mm 5 mps 720 mmHg 55%
    09:00 +30°C° 0 mm 5 mps 719 mmHg 51%
    10:00 +32°C° 0 mm 5 mps 719 mmHg 48%
    11:00 +33°C° 0 mm 5 mps 719 mmHg 45%
    12:00 +34°C° 0 mm 5 mps 718 mmHg 43%
    13:00 +34°C° 0.1 mm 5 mps 718 mmHg 41%
    14:00 +35°C° 0.1 mm 5 mps 718 mmHg 40%
    15:00 +35°C° 0.1 mm 5 mps 717 mmHg 39%
    16:00 +35°C° 0.2 mm 5 mps 717 mmHg 40%
    17:00 +34°C° 0.2 mm 5 mps 717 mmHg 41%
    18:00 +33°C° 0.2 mm 6 mps 717 mmHg 42%
    19:00 +32°C° 0.2 mm 6 mps 717 mmHg 46%
    20:00 +29°C° 0.2 mm 6 mps 718 mmHg 50%
    21:00 +27°C° 0.2 mm 6 mps 719 mmHg 54%
    22:00 +26°C° 0 mm 5 mps 719 mmHg 56%
    23:00 +25°C° 0 mm 4 mps 719 mmHg 59%
    Mostrar más